Time,TemperatureF,DewpointF,PressureIn,WindDirection,WindDirectionDegrees,WindSpeedMPH,WindSpeedGustMPH,Humidity,HourlyPrecipIn,Conditions,Clouds,dailyrainin,SoftwareType,DateUTC
2013-09-23 06:55:00,38.6,37.8,30.15,ESE,105,0.0,8.0,97,0.00,,,0.00,Wunderground v.1.15,2013-09-23 10:55:00,
2013-09-23 07:05:00,39.1,38.6,30.15,ESE,106,0.0,8.0,98,0.00,,,0.00,Wunderground v.1.15,2013-09-23 11:05:00,
2013-09-23 07:15:00,39.4,38.9,30.15,ESE,106,0.0,8.0,98,0.00,,,0.00,Wunderground v.1.15,2013-09-23 11:15:00,
2013-09-23 07:25:00,39.9,39.4,30.16,ESE,106,0.0,8.0,98,0.00,,,0.00,Wunderground v.1.15,2013-09-23 11:25:00,
2013-09-23 07:35:00,39.9,39.4,30.16,ESE,106,0.0,8.0,98,0.00,,,0.00,Wunderground v.1.15,2013-09-23 11:35:00,
2013-09-23 07:40:00,39.9,39.4,30.16,ESE,105,0.0,8.0,98,0.00,,,0.00,Wunderground v.1.15,2013-09-23 11:40:00,
2013-09-23 07:50:00,39.9,39.4,30.17,ESE,106,0.0,8.0,98,0.00,,,0.00,Wunderground v.1.15,2013-09-23 11:50:00,
2013-09-23 08:00:00,40.1,39.6,30.17,ESE,105,0.0,0.0,98,0.00,,,0.00,Wunderground v.1.15,2013-09-23 12:00:00,
2013-09-23 08:10:00,41.0,40.5,30.18,ESE,105,0.0,0.0,98,0.00,,,0.00,Wunderground v.1.15,2013-09-23 12:10:00,
2013-09-23 08:15:00,41.9,41.4,30.18,ESE,105,0.0,0.0,98,0.00,,,0.00,Wunderground v.1.15,2013-09-23 12:15:00,
2013-09-23 08:25:00,44.2,43.7,30.19,NNE,33,0.0,0.0,98,0.00,,,0.00,Wunderground v.1.15,2013-09-23 12:25:00,
2013-09-23 08:35:00,45.8,45.3,30.18,North,1,0.0,0.0,98,0.00,,,0.00,Wunderground v.1.15,2013-09-23 12:35:00,
2013-09-23 08:45:00,47.5,47.0,30.18,ESE,115,0.0,2.0,98,0.00,,,0.00,Wunderground v.1.15,2013-09-23 12:45:00,
2013-09-23 08:55:00,49.6,47.1,30.19,ESE,118,0.0,0.0,91,0.00,,,0.00,Wunderground v.1.15,2013-09-23 12:55:00,
2013-09-23 09:00:00,50.6,47.2,30.19,NNW,328,0.0,1.0,88,0.00,,,0.00,Wunderground v.1.15,2013-09-23 13:00:00,
2013-09-23 09:10:00,51.0,46.3,30.19,North,360,1.0,1.0,84,0.00,,,0.00,Wunderground v.1.15,2013-09-23 13:10:00,
2013-09-23 09:20:00,52.0,46.0,30.20,ESE,103,0.0,1.0,80,0.00,,,0.00,Wunderground v.1.15,2013-09-23 13:20:00,
2013-09-23 09:30:00,52.2,45.5,30.20,SSW,198,1.0,1.0,78,0.00,,,0.00,Wunderground v.1.15,2013-09-23 13:30:00,
2013-09-23 09:35:00,52.3,46.0,30.20,NNW,348,1.0,1.0,79,0.00,,,0.00,Wunderground v.1.15,2013-09-23 13:35:00,
2013-09-23 09:45:00,52.2,45.2,30.20,ESE,103,1.0,1.0,77,0.00,,,0.00,Wunderground v.1.15,2013-09-23 13:45:00,
2013-09-23 09:55:00,52.8,46.5,30.20,ESE,103,1.0,1.0,79,0.00,,,0.00,Wunderground v.1.15,2013-09-23 13:55:00,
2013-09-23 10:00:00,53.0,46.3,30.20,NNE,21,1.0,2.0,78,0.00,,,0.00,Wunderground v.1.15,2013-09-23 14:00:00,
2013-09-23 10:10:00,52.8,45.4,30.20,East,94,1.0,3.0,76,0.00,,,0.00,Wunderground v.1.15,2013-09-23 14:10:00,
2013-09-23 10:15:00,52.8,46.1,30.20,East,100,1.0,3.0,78,0.00,,,0.00,Wunderground v.1.15,2013-09-23 14:15:00,
2013-09-23 10:25:00,53.2,45.8,30.20,ENE,75,1.0,1.0,76,0.00,,,0.00,Wunderground v.1.15,2013-09-23 14:25:00,
2013-09-23 10:30:00,53.2,45.1,30.20,SE,141,1.0,1.0,74,0.00,,,0.00,Wunderground v.1.15,2013-09-23 14:30:00,
2013-09-23 10:40:00,53.3,45.6,30.20,East,95,0.0,0.0,75,0.00,,,0.00,Wunderground v.1.15,2013-09-23 14:40:00,
2013-09-23 10:50:00,53.4,45.7,30.20,ESE,105,0.0,6.0,75,0.00,,,0.00,Wunderground v.1.15,2013-09-23 14:50:00,
2013-09-23 10:55:00,53.3,44.9,30.20,ESE,118,1.0,6.0,73,0.00,,,0.00,Wunderground v.1.15,2013-09-23 14:55:00,
2013-09-23 11:05:00,53.1,44.7,30.20,East,96,1.0,6.0,73,0.00,,,0.00,Wunderground v.1.15,2013-09-23 15:05:00,
2013-09-23 11:15:00,53.7,45.2,30.21,East,98,0.0,6.0,73,0.00,,,0.00,Wunderground v.1.15,2013-09-23 15:15:00,
2013-09-23 11:25:00,54.0,45.9,30.21,ESE,108,0.0,6.0,74,0.00,,,0.00,Wunderground v.1.15,2013-09-23 15:25:00,
2013-09-23 11:35:00,54.2,46.1,30.21,ESE,119,1.0,6.0,74,0.00,,,0.00,Wunderground v.1.15,2013-09-23 15:35:00,
2013-09-23 11:45:00,54.5,45.7,30.21,ESE,110,0.0,6.0,72,0.00,,,0.00,Wunderground v.1.15,2013-09-23 15:45:00,
2013-09-23 11:55:00,54.7,44.7,30.21,ESE,105,0.0,6.0,69,0.00,,,0.00,Wunderground v.1.15,2013-09-23 15:55:00,
2013-09-23 12:00:00,54.7,44.7,30.20,East,98,1.0,1.0,69,0.00,,,0.00,Wunderground v.1.15,2013-09-23 16:00:00,
2013-09-23 12:10:00,55.0,44.2,30.20,ESE,104,0.0,2.0,67,0.00,,,0.00,Wunderground v.1.15,2013-09-23 16:10:00,
2013-09-23 12:20:00,55.2,44.4,30.20,ESE,116,0.0,0.0,67,0.00,,,0.00,Wunderground v.1.15,2013-09-23 16:20:00,
2013-09-23 12:25:00,55.3,44.9,30.20,ESE,107,0.0,2.0,68,0.00,,,0.00,Wunderground v.1.15,2013-09-23 16:25:00,
2013-09-23 12:35:00,55.5,43.9,30.20,North,1,1.0,1.0,65,0.00,,,0.00,Wunderground v.1.15,2013-09-23 16:35:00,
2013-09-23 12:45:00,55.9,44.7,30.20,East,94,2.0,2.0,66,0.00,,,0.00,Wunderground v.1.15,2013-09-23 16:45:00,
2013-09-23 12:55:00,55.7,44.5,30.20,ESE,110,1.0,4.0,66,0.00,,,0.00,Wunderground v.1.15,2013-09-23 16:55:00,
2013-09-23 13:05:00,56.0,43.6,30.20,ESE,105,1.0,3.0,63,0.00,,,0.00,Wunderground v.1.15,2013-09-23 17:05:00,
2013-09-23 13:15:00,56.2,43.8,30.20,WNW,290,1.0,3.0,63,0.00,,,0.00,Wunderground v.1.15,2013-09-23 17:15:00,
2013-09-23 13:25:00,57.3,47.2,30.20,NNW,340,1.0,3.0,69,0.00,,,0.00,Wunderground v.1.15,2013-09-23 17:25:00,
2013-09-23 13:30:00,57.8,45.3,30.19,NW,310,1.0,1.0,63,0.00,,,0.00,Wunderground v.1.15,2013-09-23 17:30:00,
2013-09-23 13:40:00,57.9,44.1,30.19,North,4,0.0,3.0,60,0.00,,,0.00,Wunderground v.1.15,2013-09-23 17:40:00,
2013-09-23 13:45:00,57.5,44.1,30.19,ESE,105,0.0,3.0,61,0.00,,,0.00,Wunderground v.1.15,2013-09-23 17:45:00,
2013-09-23 13:55:00,57.3,43.1,30.19,North,360,1.0,3.0,59,0.00,,,0.00,Wunderground v.1.15,2013-09-23 17:55:00,
2013-09-23 14:00:00,57.6,44.2,30.19,NW,307,1.0,2.0,61,0.00,,,0.00,Wunderground v.1.15,2013-09-23 18:00:00,
2013-09-23 14:05:00,57.6,43.8,30.19,NNW,329,1.0,2.0,60,0.00,,,0.00,Wunderground v.1.15,2013-09-23 18:05:00,
2013-09-23 14:15:00,57.3,43.5,30.19,East,93,1.0,2.0,60,0.00,,,0.00,Wunderground v.1.15,2013-09-23 18:15:00,
2013-09-23 14:25:00,57.5,44.1,30.19,West,280,1.0,1.0,61,0.00,,,0.00,Wunderground v.1.15,2013-09-23 18:25:00,
2013-09-23 14:35:00,58.6,43.9,30.18,ESE,105,1.0,2.0,58,0.00,,,0.00,Wunderground v.1.15,2013-09-23 18:35:00,
2013-09-23 14:45:00,58.6,45.2,30.18,East,89,1.0,1.0,61,0.00,,,0.00,Wunderground v.1.15,2013-09-23 18:45:00,
2013-09-23 14:55:00,58.2,43.9,30.18,ESE,115,1.0,3.0,59,0.00,,,0.00,Wunderground v.1.15,2013-09-23 18:55:00,
2013-09-23 15:00:00,58.0,44.6,30.18,ESE,117,1.0,1.0,61,0.00,,,0.00,Wunderground v.1.15,2013-09-23 19:00:00,
2013-09-23 15:10:00,58.5,44.2,30.17,ESE,104,1.0,1.0,59,0.00,,,0.00,Wunderground v.1.15,2013-09-23 19:10:00,
2013-09-23 15:20:00,58.8,43.6,30.17,East,96,1.0,1.0,57,0.00,,,0.00,Wunderground v.1.15,2013-09-23 19:20:00,
2013-09-23 15:30:00,59.0,44.2,30.17,ESE,122,1.0,1.0,58,0.00,,,0.00,Wunderground v.1.15,2013-09-23 19:30:00,
2013-09-23 15:40:00,59.5,44.2,30.17,WNW,295,1.0,3.0,57,0.00,,,0.00,Wunderground v.1.15,2013-09-23 19:40:00,
2013-09-23 15:45:00,59.9,45.1,30.17,SE,129,1.0,3.0,58,0.00,,,0.00,Wunderground v.1.15,2013-09-23 19:45:00,
2013-09-23 15:55:00,59.6,45.2,30.16,ESE,111,2.0,3.0,59,0.00,,,0.00,Wunderground v.1.15,2013-09-23 19:55:00,
2013-09-23 16:00:00,59.7,44.4,30.16,NNE,15,1.0,1.0,57,0.00,,,0.00,Wunderground v.1.15,2013-09-23 20:00:00,
2013-09-23 16:05:00,59.8,44.5,30.16,ESE,105,0.0,2.0,57,0.00,,,0.00,Wunderground v.1.15,2013-09-23 20:05:00,
2013-09-23 16:15:00,59.5,44.2,30.16,East,96,0.0,0.0,57,0.00,,,0.00,Wunderground v.1.15,2013-09-23 20:15:00,
2013-09-23 16:25:00,60.1,45.7,30.16,NW,309,1.0,1.0,59,0.00,,,0.00,Wunderground v.1.15,2013-09-23 20:25:00,
2013-09-23 16:35:00,60.2,44.9,30.16,SE,131,1.0,2.0,57,0.00,,,0.00,Wunderground v.1.15,2013-09-23 20:35:00,
2013-09-23 16:45:00,59.5,44.2,30.16,East,101,1.0,2.0,57,0.00,,,0.00,Wunderground v.1.15,2013-09-23 20:45:00,
2013-09-23 16:50:00,59.2,44.9,30.16,ESE,114,2.0,2.0,59,0.00,,,0.00,Wunderground v.1.15,2013-09-23 20:50:00,
2013-09-23 17:00:00,59.5,45.2,30.16,ENE,61,1.0,1.0,59,0.00,,,0.00,Wunderground v.1.15,2013-09-23 21:00:00,
2013-09-23 17:10:00,59.7,44.4,30.15,ESE,104,1.0,1.0,57,0.00,,,0.00,Wunderground v.1.15,2013-09-23 21:10:00,
2013-09-23 17:15:00,59.7,44.9,30.16,ENE,64,1.0,6.0,58,0.00,,,0.00,Wunderground v.1.15,2013-09-23 21:15:00,
2013-09-23 17:25:00,59.5,44.2,30.15,East,79,1.0,6.0,57,0.00,,,0.00,Wunderground v.1.15,2013-09-23 21:25:00,
2013-09-23 17:35:00,59.5,44.7,30.15,East,100,1.0,6.0,58,0.00,,,0.00,Wunderground v.1.15,2013-09-23 21:35:00,
2013-09-23 17:45:00,59.9,44.2,30.15,ESE,105,1.0,6.0,56,0.00,,,0.00,Wunderground v.1.15,2013-09-23 21:45:00,
2013-09-23 17:55:00,60.4,44.2,30.15,East,96,1.0,6.0,55,0.00,,,0.00,Wunderground v.1.15,2013-09-23 21:55:00,
2013-09-23 18:00:00,60.8,45.0,30.15,NNE,26,1.0,1.0,56,0.00,,,0.00,Wunderground v.1.15,2013-09-23 22:00:00,
2013-09-23 18:05:00,61.5,45.2,30.15,NNW,330,0.0,1.0,55,0.00,,,0.00,Wunderground v.1.15,2013-09-23 22:05:00,
2013-09-23 18:15:00,61.0,44.7,30.15,East,82,1.0,2.0,55,0.00,,,0.00,Wunderground v.1.15,2013-09-23 22:15:00,
2013-09-23 18:25:00,61.3,45.5,30.15,East,95,0.0,2.0,56,0.00,,,0.00,Wunderground v.1.15,2013-09-23 22:25:00,
2013-09-23 18:30:00,61.1,45.3,30.15,ESE,121,0.0,0.0,56,0.00,,,0.00,Wunderground v.1.15,2013-09-23 22:30:00,
2013-09-23 18:40:00,59.5,44.2,30.15,SE,127,1.0,1.0,57,0.00,,,0.00,Wunderground v.1.15,2013-09-23 22:40:00,
2013-09-23 18:50:00,58.4,43.7,30.15,East,89,1.0,6.0,58,0.00,,,0.00,Wunderground v.1.15,2013-09-23 22:50:00,
2013-09-23 18:55:00,58.0,43.7,30.14,ESE,117,1.0,6.0,59,0.00,,,0.00,Wunderground v.1.15,2013-09-23 22:55:00,
2013-09-23 19:05:00,57.2,43.9,30.15,ESE,113,0.0,6.0,61,0.00,,,0.00,Wunderground v.1.15,2013-09-23 23:05:00,
2013-09-23 19:15:00,56.5,43.6,30.14,ESE,104,0.0,6.0,62,0.00,,,0.00,Wunderground v.1.15,2013-09-23 23:15:00,
2013-09-23 19:20:00,56.3,43.9,30.14,ESE,111,0.0,6.0,63,0.00,,,0.00,Wunderground v.1.15,2013-09-23 23:20:00,
2013-09-23 19:30:00,55.1,43.5,30.14,ESE,111,0.0,6.0,65,0.00,,,0.00,Wunderground v.1.15,2013-09-23 23:30:00,
2013-09-23 19:40:00,53.7,43.8,30.14,ESE,112,0.0,6.0,69,0.00,,,0.00,Wunderground v.1.15,2013-09-23 23:40:00,
2013-09-23 19:50:00,52.2,43.4,30.14,ESE,112,0.0,6.0,72,0.00,,,0.00,Wunderground v.1.15,2013-09-23 23:50:00,
2013-09-23 20:00:00,51.0,43.7,30.14,ESE,112,0.0,0.0,76,0.00,,,0.00,Wunderground v.1.15,2013-09-24 00:00:00,
2013-09-23 20:10:00,49.8,43.2,30.14,ESE,112,0.0,0.0,78,0.00,,,0.00,Wunderground v.1.15,2013-09-24 00:10:00,
2013-09-23 20:20:00,48.8,43.2,30.14,ESE,111,0.0,0.0,81,0.00,,,0.00,Wunderground v.1.15,2013-09-24 00:20:00,
2013-09-23 20:30:00,47.9,42.7,30.14,ESE,112,0.0,0.0,82,0.00,,,0.00,Wunderground v.1.15,2013-09-24 00:30:00,
2013-09-23 20:40:00,47.2,42.9,30.15,ESE,111,0.0,0.0,85,0.00,,,0.00,Wunderground v.1.15,2013-09-24 00:40:00,
2013-09-23 20:45:00,46.8,42.5,30.15,ESE,111,0.0,0.0,85,0.00,,,0.00,Wunderground v.1.15,2013-09-24 00:45:00,
2013-09-23 20:55:00,46.0,42.3,30.15,ESE,112,0.0,0.0,87,0.00,,,0.00,Wunderground v.1.15,2013-09-24 00:55:00,
2013-09-23 21:05:00,45.3,42.2,30.15,ESE,112,0.0,0.0,89,0.00,,,0.00,Wunderground v.1.15,2013-09-24 01:05:00,
2013-09-23 21:15:00,44.9,42.1,30.15,ESE,112,0.0,0.0,90,0.00,,,0.00,Wunderground v.1.15,2013-09-24 01:15:00,
2013-09-23 21:25:00,44.7,42.2,30.15,ESE,112,0.0,0.0,91,0.00,,,0.00,Wunderground v.1.15,2013-09-24 01:25:00,
2013-09-23 21:35:00,44.4,42.2,30.15,ESE,112,0.0,0.0,92,0.00,,,0.00,Wunderground v.1.15,2013-09-24 01:35:00,
2013-09-23 21:45:00,43.8,41.6,30.15,ESE,112,0.0,0.0,92,0.00,,,0.00,Wunderground v.1.15,2013-09-24 01:45:00,
2013-09-23 21:55:00,43.6,41.7,30.15,ESE,112,0.0,0.0,93,0.00,,,0.00,Wunderground v.1.15,2013-09-24 01:55:00,
2013-09-23 22:00:00,43.6,42.0,30.15,ESE,112,0.0,0.0,94,0.00,,,0.00,Wunderground v.1.15,2013-09-24 02:00:00,
2013-09-23 22:10:00,43.3,41.7,30.15,ESE,112,0.0,0.0,94,0.00,,,0.00,Wunderground v.1.15,2013-09-24 02:10:00,
2013-09-23 22:15:00,43.3,41.7,30.15,ESE,111,0.0,0.0,94,0.00,,,0.00,Wunderground v.1.15,2013-09-24 02:15:00,
2013-09-23 22:25:00,43.3,42.0,30.15,ESE,112,0.0,0.0,95,0.00,,,0.00,Wunderground v.1.15,2013-09-24 02:25:00,
2013-09-23 22:35:00,43.1,41.8,30.16,ESE,112,0.0,0.0,95,0.00,,,0.00,Wunderground v.1.15,2013-09-24 02:35:00,
2013-09-23 22:45:00,43.0,41.7,30.16,ESE,112,0.0,0.0,95,0.00,,,0.00,Wunderground v.1.15,2013-09-24 02:45:00,
2013-09-23 22:55:00,42.8,41.5,30.16,ESE,112,0.0,0.0,95,0.00,,,0.00,Wunderground v.1.15,2013-09-24 02:55:00,
2013-09-23 23:05:00,42.4,41.1,30.16,ESE,111,0.0,0.0,95,0.00,,,0.00,Wunderground v.1.15,2013-09-24 03:05:00,
2013-09-23 23:15:00,42.0,40.7,30.16,ESE,112,0.0,0.0,95,0.00,,,0.00,Wunderground v.1.15,2013-09-24 03:15:00,
2013-09-23 23:25:00,41.9,40.8,30.16,ESE,111,0.0,0.0,96,0.00,,,0.00,Wunderground v.1.15,2013-09-24 03:25:00,
2013-09-23 23:35:00,41.6,40.5,30.16,ESE,112,0.0,0.0,96,0.00,,,0.00,Wunderground v.1.15,2013-09-24 03:35:00,
2013-09-23 23:40:00,41.4,40.3,30.16,ESE,112,0.0,0.0,96,0.00,,,0.00,Wunderground v.1.15,2013-09-24 03:40:00,
2013-09-23 23:50:00,41.0,39.9,30.16,ESE,112,0.0,0.0,96,0.00,,,0.00,Wunderground v.1.15,2013-09-24 03:50:00,